Location: Black Swamp Observatory
(41.3920°N, 84.1250°W)
Time: 22:22:22
(UTC-05:00)

PRISM - Visible Passes

Search period start: 26 February 2024 00:00
Search period end: 07 March 2024 00:00
Orbit: 516 x 532 km, 98.2° (Epoch: 26 February)

Date Brightness Start Highest point End Pass type
(mag) Time Alt. Az. Time Alt. Az. Time Alt. Az.
26 Feb ? 19:17:23 12° ESE 19:20:09 24° ENE 19:23:16 10° NNE visible
26 Feb ? 20:52:33 18° SW 20:54:13 24° W 20:57:22 10° NW visible
27 Feb ? 19:05:25 10° ESE 19:08:00 18° ENE 19:10:36 10° NNE visible
27 Feb ? 20:40:02 22° SSW 20:41:52 33° W 20:45:24 10° NNW visible
28 Feb ? 18:54:03 10° E 18:55:50 13° ENE 18:57:36 10° NE visible
28 Feb ? 20:27:30 24° SSW 20:29:32 48° W 20:33:17 10° NNW visible
29 Feb ? 20:14:56 24° S 20:17:10 71° WSW 20:21:02 10° NNW visible
01 Mar ? 20:02:20 21° SSE 20:04:48 79° ENE 20:08:40 10° N visible
02 Mar ? 19:49:43 17° SE 19:52:25 54° ENE 19:56:12 10° N visible
02 Mar ? 21:26:05 10° WSW 21:26:52 10° W 21:27:40 10° W visible
03 Mar ? 19:37:02 14° SE 19:40:01 37° ENE 19:43:37 10° N visible
03 Mar ? 21:12:12 11° SW 21:14:18 15° W 21:16:35 10° WNW visible
04 Mar ? 19:24:22 10° SE 19:27:38 27° ENE 19:30:54 10° N visible
04 Mar ? 20:59:30 14° SW 21:01:43 21° W 21:04:42 10° NW visible
05 Mar ? 19:12:24 10° ESE 19:15:12 20° ENE 19:18:01 10° NNE visible
05 Mar ? 20:46:46 16° SSW 20:49:08 29° W 20:52:33 10° NW visible
06 Mar ? 19:00:40 10° E 19:02:46 14° ENE 19:04:53 10° NNE visible
06 Mar ? 20:34:00 18° SSW 20:36:31 42° W 20:40:12 10° NNW visible
